Theta_e
320 319 317 317 318 317 316 315 310 304 304 311 311 316 317 318 317 317 318 319 318 317 316 317 317 317 318 319 319 319 320 321 322 322 323 324 327 329
314 315 314 313 315 313 312 311 310 307 300 307 307 311 314 320 320 316 316 318 319 320 320 318 318 319 319 320 319 320 320 321 321 321 321 321 323 325
313 312 315 313 313 314 313 313 311 308 304 308 309 311 310 312 318 317 319 315 317 321 323 321 320 319 318 318 317 317 318 318 319 319 319 320 320 321
308 306 308 309 306 307 306 305 305 306 307 304 308 310 310 312 313 314 317 318 312 318 320 321 319 317 316 316 315 315 314 315 315 316 317 317 317 318
307 305 305 304 302 303 302 302 303 304 301 301 304 308 309 308 304 304 305 305 310 317 316 317 317 316 316 316 315 313 312 311 311 312 313 314 315 315
308 307 306 304 302 302 304 302 301 300 300 300 300 300 300 302 301 300 301 301 302 308 311 312 314 314 314 316 316 316 312 310 309 308 308 309 308 308
306 304 303 308 312 311 303 300 301 299 299 298 297 297 298 298 298 299 298 298 300 301 302 302 303 304 306 311 313 315 315 313 310 308 307 305 304 303
304 301 301 304 304 308 310 309 306 300 299 299 298 297 298 298 300 299 298 297 295 302 300 301 302 302 304 306 311 310 311 310 309 307 306 305 305 304
301 300 301 302 302 304 308 309 308 309 309 300 297 298 297 298 298 297 297 296 296 303 301 299 301 301 304 308 309 309 308 307 306 306 305 304 303 303
303 301 298 298 299 302 302 302 303 303 306 306 302 301 300 300 299 299 299 299 300 301 302 296 300 300 302 304 307 309 307 307 307 306 305 305 302 300
301 302 300 297 300 300 300 300 299 301 307 308 307 305 304 304 303 300 298 297 299 298 305 300 298 299 300 300 307 309 308 307 307 307 306 304 303 302
298 297 303 298 299 299 296 297 296 300 301 304 303 304 304 305 306 301 300 297 301 300 304 302 302 301 298 304 303 305 305 307 306 305 304 304 303 300
302 300 300 299 298 298 298 296 298 299 304 305 305 304 302 302 303 304 303 300 301 300 306 305 303 300 301 301 299 301 302 303 304 308 305 304 303 301
301 302 300 299 299 299 298 299 298 301 305 303 299 299 300 300 302 303 303 303 306 305 307 307 304 302 302 300 299 302 304 304 307 305 306 306 304 304
300 302 302 299 300 301 299 299 299 304 302 298 298 298 300 301 302 302 303 304 305 305 307 306 303 301 298 300 299 299 297 299 303 304 304 304 307 307
298 299 305 302 300 303 302 303 300 304 303 299 299 299 300 301 300 301 300 300 299 300 305 304 301 303 295 296 296 297 299 299 300 303 306 306 307 307
297 304 301 298 300 300 302 303 300 300 301 300 299 299 298 298 299 305 300 298 296 296 298 300 302 301 299 298 295 297 298 301 302 303 301 300 304 305
300 301 297 296 300 300 301 301 299 300 300 302 299 299 299 298 298 302 301 297 295 296 296 299 301 301 300 300 301 297 297 298 300 302 301 300 301 303
302 300 296 297 300 300 301 301 300 301 301 300 299 299 299 299 299 298 299 297 296 295 295 296 297 298 296 293 298 300 297 297 297 298 301 300 299 301
297 296 295 300 301 301 301 300 301 302 302 301 298 299 299 299 301 298 301 300 295 295 299 294 293 295 296 295 295 295 297 298 294 292 292 298 301 303
296 296 298 301 301 301 298 300 300 300 298 299 301 300 301 301 299 301 300 296 294 295 294 293 295 291 299 298 295 294 294 299 299 294 294 292 293 295
296 297 301 301 300 300 299 300 300 297 296 296 296 298 301 303 303 303 304 303 296 295 295 296 297 296 294 294 292 292 293 296 300 301 300 298 293 289
297 299 301 298 297 297 297 297 295 294 294 294 295 296 298 300 303 304 305 305 302 299 299 295 295 295 294 292 289 291 292 293 294 295 296 299 299 299
Wind_Speed
5 5 4 4 4 3 3 3 1 2 3 1 1 2 1 1 0 1 2 2 4 5 5 4 5 9 9 10 9 10 10 8 9 11 13 14 16 19
4 5 5 3 4 3 2 2 3 2 1 2 3 3 3 3 5 3 4 8 11 14 15 15 16 16 15 14 12 13 11 12 12 13 12 13 13 16
9 9 9 7 5 4 4 3 3 1 1 3 3 3 2 4 5 4 6 6 6 14 17 16 14 14 13 11 11 10 10 9 8 8 8 9 10 11
8 8 8 6 7 7 5 6 5 5 1 3 2 2 2 3 4 5 5 4 4 6 6 7 13 13 11 10 11 10 9 9 9 9 8 9 10 11
7 7 7 7 7 5 6 6 5 4 4 5 7 7 5 5 4 4 5 5 4 11 10 8 9 9 10 12 11 12 11 9 9 9 9 9 10 11
7 8 7 7 7 6 6 6 5 5 5 5 4 4 3 3 3 4 7 4 5 6 7 6 9 9 8 8 11 13 13 11 11 11 9 7 6 8
6 6 7 11 14 8 3 5 6 5 5 4 3 3 4 4 5 4 3 3 4 1 4 4 4 4 5 7 8 8 10 10 10 9 6 7 6 9
5 5 6 11 10 10 6 7 6 5 5 3 3 3 4 3 3 3 3 4 4 3 4 5 3 4 4 5 8 8 7 6 4 4 5 7 9 10
6 5 5 5 7 7 10 5 6 9 6 3 2 2 3 2 3 4 3 2 3 6 3 3 2 4 4 5 10 9 9 9 6 5 5 7 9 11
4 4 5 6 7 7 7 7 6 6 6 3 2 4 3 4 1 2 3 5 5 4 2 2 3 4 5 6 10 11 5 5 7 6 5 7 12 12
3 3 5 6 8 12 7 7 7 6 6 9 9 7 3 4 2 2 4 4 4 3 3 3 3 5 4 4 4 4 6 6 7 7 7 8 8 11
1 2 2 5 5 6 5 5 6 5 6 6 6 5 5 6 5 2 2 3 3 3 2 4 3 3 4 3 4 4 4 7 10 11 7 7 7 4
4 3 3 2 2 5 2 1 3 6 6 4 4 4 5 5 4 4 3 2 2 3 4 2 2 3 3 4 4 3 3 4 4 4 6 7 9 6
1 3 5 2 3 4 4 7 8 7 4 4 4 3 3 4 4 5 5 3 3 6 5 3 2 3 3 3 3 4 5 5 3 4 3 5 6 10
4 6 10 10 5 3 3 4 6 4 3 4 4 3 3 4 5 5 5 5 3 3 3 3 2 3 2 2 4 5 6 4 5 5 3 2 1 1
8 6 7 6 4 1 1 0 2 3 3 2 3 4 4 4 4 3 3 4 3 5 5 4 2 3 3 3 3 5 5 4 5 5 2 3 3 4
5 2 4 4 4 4 4 3 4 5 5 4 3 4 4 4 4 3 3 3 3 4 5 5 3 4 3 1 3 5 6 4 5 5 4 2 3 2
3 3 3 3 4 3 3 3 4 5 4 4 3 3 3 4 4 4 2 2 3 4 4 4 6 2 1 1 5 5 4 5 6 6 3 3 2 2
3 2 2 3 3 2 3 3 3 3 3 3 3 4 4 3 4 4 4 2 3 2 3 3 4 4 3 3 3 3 3 5 6 5 3 2 2 2
2 1 2 4 2 3 3 3 4 4 3 3 4 4 5 3 3 4 4 2 2 3 2 3 3 3 3 3 3 3 2 3 3 4 4 4 3 4
2 3 3 2 3 3 2 3 4 4 4 5 6 5 5 3 5 6 4 5 2 2 2 3 3 5 3 2 3 4 4 6 5 2 4 3 3 3
3 4 3 3 4 4 3 3 4 5 5 4 5 5 6 5 6 6 6 4 2 2 2 3 3 2 1 1 3 4 4 4 6 10 9 6 2 3
3 4 4 4 4 3 4 4 4 4 5 5 5 5 6 7 7 6 6 5 3 2 3 2 2 2 2 2 3 3 5 4 3 4 3 13 14 14
Wind_Direction
47 50 46 24 29 24 48 43 88 59 7 301 255 192 156 154 87 118 149 191 247 222 216 193 234 240 236 233 231 249 251 262 265 279 289 295 302 291
46 49 38 13 16 15 12 29 42 104 36 214 257 209 207 224 249 244 247 248 249 243 235 227 225 230 238 242 236 238 243 240 235 231 236 252 263 277
38 38 39 22 11 7 11 25 4 90 159 297 217 227 211 237 250 255 240 242 257 256 251 245 238 241 242 243 244 241 252 257 256 255 265 274 281 282
54 43 36 26 32 22 31 20 13 347 24 313 278 14 251 293 327 315 322 333 330 339 283 234 228 240 243 244 257 255 253 267 282 282 289 283 284 287
65 50 26 28 28 21 29 30 14 16 2 46 49 41 47 36 6 14 1 0 357 0 13 339 285 278 260 259 257 254 257 252 253 258 259 269 283 285
62 50 29 32 31 20 28 24 22 35 23 40 32 24 12 346 49 21 352 345 337 335 347 357 348 339 341 278 269 260 258 257 253 256 245 254 279 287
63 60 38 37 32 38 54 12 29 32 28 33 27 16 2 2 11 323 342 305 304 309 334 318 327 325 320 318 318 312 300 251 239 247 245 264 270 293
70 53 48 29 4 5 19 37 43 41 36 39 13 15 339 347 334 321 329 347 337 315 342 310 312 307 294 307 282 284 291 300 286 261 282 295 299 303
68 50 45 29 20 22 26 2 346 360 72 111 27 311 340 312 332 335 339 308 274 299 351 299 326 315 313 309 299 268 245 243 246 253 302 316 312 302
78 69 56 37 23 22 22 35 30 10 6 8 354 287 264 299 27 270 283 296 291 291 9 331 320 307 300 301 300 289 270 245 240 268 284 288 298 302
61 66 66 48 22 25 27 7 1 350 349 348 348 341 331 312 236 10 344 355 329 316 15 334 312 305 300 306 322 299 260 257 274 265 261 271 288 308
53 352 29 96 47 37 36 9 3 335 335 347 351 6 13 340 296 242 277 338 316 293 301 335 324 356 323 315 315 351 327 284 255 254 243 276 295 318
244 285 251 179 9 338 25 342 279 300 328 1 3 8 349 340 340 318 307 200 285 266 294 319 290 308 235 299 297 314 335 310 285 251 239 263 281 274
312 327 314 290 236 294 330 313 330 335 350 6 11 337 330 330 319 327 324 302 265 250 304 335 294 295 309 293 318 322 330 312 319 320 215 221 246 269
344 319 329 332 26 115 205 292 340 353 13 5 341 311 297 299 321 334 332 337 359 336 349 351 328 310 1 325 318 330 323 330 335 330 16 81 218 16
349 326 333 1 95 184 326 346 353 28 10 336 339 314 330 341 340 321 329 333 358 330 326 338 15 27 1 347 349 330 327 319 331 341 6 43 48 40
303 359 26 16 17 9 36 31 23 20 2 349 3 348 343 340 327 321 342 349 25 337 330 326 39 85 67 8 1 345 328 332 340 336 354 347 47 59
51 52 23 8 0 26 53 19 3 9 342 347 351 338 324 332 332 324 347 5 356 346 336 318 341 284 214 84 60 355 357 330 327 325 334 358 351 42
50 57 22 315 327 37 54 24 0 336 332 341 340 333 329 314 340 322 330 7 338 322 320 327 342 357 349 344 298 96 360 344 335 342 324 313 301 319
50 14 298 302 62 78 47 22 360 351 353 358 344 347 352 340 327 334 330 345 313 302 340 352 346 354 342 337 312 286 221 299 326 319 325 305 266 259
299 299 261 68 106 89 47 24 7 4 1 1 356 353 340 340 332 331 311 322 263 330 347 321 272 273 297 330 328 312 304 268 250 278 310 332 326 337
287 295 303 129 96 73 36 25 39 29 11 2 348 342 337 326 328 324 328 325 244 239 250 262 295 330 18 356 291 296 302 299 295 252 235 226 219 304
291 318 72 112 88 69 31 52 61 33 9 348 337 330 330 326 328 328 334 331 340 300 262 269 276 271 247 220 230 285 288 293 299 313 283 225 227 234